TimeEDT,TemperatureF,Dew PointF,Humidity,Sea Level PressureIn,VisibilityMPH,Wind Direction,Wind SpeedMPH,Gust SpeedMPH,PrecipitationIn,Events,Conditions,WindDirDegrees,DateUTC
12:54 AM,68.0,66.0,93,29.76,7.0,Calm,Calm,-,N/A,,Clear,0,2013-06-27 04:54:00
1:34 AM,68.0,66.2,94,29.77,1.8,Calm,Calm,-,N/A,,Clear,0,2013-06-27 05:34:00
1:44 AM,66.2,64.4,94,29.77,4.0,West,3.5,-,N/A,,Clear,280,2013-06-27 05:44:00
1:54 AM,68.0,64.9,90,29.75,8.0,Calm,Calm,-,N/A,,Clear,0,2013-06-27 05:54:00
2:54 AM,68.0,66.0,93,29.74,6.0,WNW,4.6,-,N/A,,Clear,300,2013-06-27 06:54:00
3:54 AM,66.9,64.9,93,29.73,5.0,Calm,Calm,-,N/A,,Clear,0,2013-06-27 07:54:00
4:54 AM,66.0,64.0,93,29.75,2.5,NW,4.6,-,N/A,,Clear,320,2013-06-27 08:54:00
5:02 AM,66.2,64.4,94,29.77,3.0,NW,6.9,-,N/A,,Partly Cloudy,320,2013-06-27 09:02:00
5:12 AM,66.2,66.2,100,29.77,2.5,NW,8.1,-,N/A,,Mostly Cloudy,320,2013-06-27 09:12:00
5:21 AM,66.2,66.2,100,29.77,1.0,NW,6.9,-,N/A,,Mist,320,2013-06-27 09:21:00
5:26 AM,66.2,66.2,100,29.77,0.5,NNW,9.2,-,N/A,Fog,Fog,330,2013-06-27 09:26:00
5:54 AM,66.9,66.0,97,29.76,0.2,NW,8.1,-,N/A,Fog,Fog,320,2013-06-27 09:54:00
6:18 AM,66.2,66.2,100,29.78,0.8,NNW,5.8,-,N/A,,Mist,340,2013-06-27 10:18:00
6:24 AM,66.2,64.4,94,29.78,2.0,NNW,6.9,-,N/A,,Overcast,330,2013-06-27 10:24:00
6:33 AM,66.2,64.4,94,29.78,4.0,NW,4.6,-,N/A,,Mostly Cloudy,320,2013-06-27 10:33:00
6:54 AM,66.0,64.0,93,29.77,8.0,NNW,4.6,-,N/A,,Partly Cloudy,340,2013-06-27 10:54:00
7:54 AM,68.0,64.9,90,29.77,10.0,West,3.5,-,N/A,,Clear,270,2013-06-27 11:54:00
8:54 AM,71.1,66.0,84,29.78,10.0,WNW,5.8,-,N/A,,Clear,290,2013-06-27 12:54:00
9:54 AM,75.0,66.9,76,29.77,10.0,West,4.6,-,N/A,,Clear,280,2013-06-27 13:54:00
10:54 AM,77.0,68.0,74,29.77,10.0,WNW,5.8,-,N/A,,Clear,300,2013-06-27 14:54:00
11:54 AM,78.1,69.1,74,29.78,10.0,WNW,8.1,-,N/A,,Scattered Clouds,290,2013-06-27 15:54:00
12:54 PM,80.1,69.1,69,29.78,10.0,West,10.4,16.1,N/A,,Partly Cloudy,280,2013-06-27 16:54:00
1:54 PM,82.0,68.0,62,29.77,10.0,WNW,10.4,-,N/A,,Clear,290,2013-06-27 17:54:00
2:54 PM,82.9,69.1,63,29.78,10.0,WNW,12.7,-,N/A,,Mostly Cloudy,290,2013-06-27 18:54:00
3:54 PM,84.0,69.1,61,29.76,10.0,NW,11.5,-,N/A,,Partly Cloudy,310,2013-06-27 19:54:00
4:54 PM,84.9,68.0,57,29.73,10.0,WNW,12.7,-,N/A,,Clear,300,2013-06-27 20:54:00
5:54 PM,84.9,69.1,59,29.70,10.0,WNW,10.4,-,N/A,,Clear,300,2013-06-27 21:54:00
6:54 PM,82.0,69.1,65,29.70,10.0,NNW,4.6,-,N/A,,Clear,330,2013-06-27 22:54:00
7:17 PM,80.6,69.8,70,29.71,10.0,North,5.8,-,N/A,Thunderstorm,Partly Cloudy,350,2013-06-27 23:17:00
7:22 PM,80.6,69.8,70,29.72,10.0,NNW,6.9,-,N/A,Thunderstorm,Thunderstorm,330,2013-06-27 23:22:00
7:28 PM,78.8,69.8,74,29.72,9.0,NNW,10.4,-,0.00,Rain-Thunderstorm,Light Thunderstorms and Rain,330,2013-06-27 23:28:00
7:52 PM,71.6,64.4,78,29.72,8.0,NNW,11.5,21.9,0.06,Rain,Light Rain,330,2013-06-27 23:52:00
7:54 PM,72.0,66.0,81,29.70,10.0,NW,8.1,-,0.06,Rain,Light Rain,320,2013-06-27 23:54:00
8:54 PM,73.0,66.9,81,29.70,10.0,NW,3.5,-,0.00,,Partly Cloudy,320,2013-06-28 00:54:00
9:54 PM,71.1,66.9,87,29.70,10.0,North,4.6,-,N/A,,Partly Cloudy,360,2013-06-28 01:54:00
10:35 PM,71.6,66.2,83,29.69,10.0,SW,3.5,-,N/A,,Clear,220,2013-06-28 02:35:00
10:54 PM,71.1,66.9,87,29.68,10.0,SW,3.5,-,N/A,,Partly Cloudy,220,2013-06-28 02:54:00
11:54 PM,70.0,64.9,84,29.68,10.0,West,4.6,-,N/A,,Partly Cloudy,270,2013-06-28 03:54:00